Location: R�o Medio
(42.4667°N, 3.0167°W)
Time: 09:23:12
(UTC+00:00)

Ariane Rocket - Pass Details

Date: 27 February 2020
Orbit: 759 x 771 km, 98.7° (Epoch: 03 April)

Event Time Altitude Azimuth Distance (km) Brightness Sun altitude
Rises 19:24:20 0° 162° (SSE) 3,229 6.0 -16.6°
Reaches altitude 10° 19:26:38 10° 161° (SSE) 2,307 5.3 -17.0°
Maximum altitude 19:31:43 82° 74° (ENE) 784 2.9 -17.9°
Drops below altitude 10° 19:36:51 10° 348° (NNW) 2,323 5.7 -18.9°
Sets 19:39:10 0° 348° (NNW) 3,253 6.5 -19.3°
